Location: Newark
(49.2191°N, 12.6671°E)
Time: 05:49:48
(UTC+00:00)

Transit 4A - Pass Details

Date: 29 January 2020
Orbit: 872 x 973 km, 66.8° (Epoch: 17 February)

Event Time Altitude Azimuth Distance (km) Brightness Sun altitude
Rises 10:20:45 0° 317° (NW) 3,485 10.4 21.4°
Reaches altitude 10° 10:24:16 10° 338° (NNW) 2,536 9.7 21.5°
Maximum altitude 10:27:54 17° 17° (NNE) 2,098 9.4 21.7°
Drops below altitude 10° 10:31:32 10° 56° (NE) 2,529 10.0 21.8°
Sets 10:35:01 0° 77° (ENE) 3,470 10.9 22.0°
